TGM annuale;;;;;;;;;;;;;;;;TGM annuale;;;;;;;;;;;;;;;;TGM annuale;;;;;;;;;;;;;;
Tratta nr.30 SR74, Km 1.000, Orbetello(GR) (flussi ascendente/discendente);;;;;;;;;;;;;;;;Tratta nr.30 SR74, Km 1.000, Orbetello(GR) (flusso ascendente);;;;;;;;;;;;;;;;Tratta nr.30 SR74, Km 1.000, Orbetello(GR) (flusso discendente);;;;;;;;;;;;;;
Anno;01 Motocicli;02 Auto e monovolume;03 Auto e monovolume con rimorchio;04 Furgoncini e camioncini;05 Camion medi;06 Camion grandi;07 Autotreni;08 Autoarticolati;09 Autobus;10 Veicoli non classificati;Totale;Feriali;Festivi;Prefestivi;;Anno;01 Motocicli;02 Auto e monovolume;03 Auto e monovolume con rimorchio;04 Furgoncini e camioncini;05 Camion medi;06 Camion grandi;07 Autotreni;08 Autoarticolati;09 Autobus;10 Veicoli non classificati;Totale;Feriali;Festivi;Prefestivi;;Anno;01 Motocicli;02 Auto e monovolume;03 Auto e monovolume con rimorchio;04 Furgoncini e camioncini;05 Camion medi;06 Camion grandi;07 Autotreni;08 Autoarticolati;09 Autobus;10 Veicoli non classificati;Totale;Feriali;Festivi;Prefestivi
2019;99;4156;6;323;43;17;8;19;13;0;4684;4758;4184;4888;;2019;48;2107;3;171;22;9;4;8;7;0;2380;2429;2077;2480;;2019;50;2049;3;152;20;8;5;11;6;0;2304;2329;2107;2408
;;;;;;;;;;;;;;;;;;;;;;;;;;;;;;;;;;;;;;;;;;;;;;
Tabella flussi 2019;;;;;;;;;;;;;;;;Tabella flussi 2019;;;;;;;;;;;;;;;;Tabella flussi 2019;;;;;;;;;;;;;;
Tratta nr.30 SR74, Km 1.000, Orbetello(GR) (flussi ascendente/discendente);;;;;;;;;;;;;;;;Tratta nr.30 SR74, Km 1.000, Orbetello(GR) (flusso ascendente);;;;;;;;;;;;;;;;Tratta nr.30 SR74, Km 1.000, Orbetello(GR) (flusso discendente);;;;;;;;;;;;;;
;Traffico Totale;;;;;;;;;;;Traffico Med.Orario 06:00 - 20:00;Traffico Ora di punta;;;;Traffico Totale;;;;;;;;;;;Traffico Med.Orario 06:00 - 20:00;Traffico Ora di punta;;;;Traffico Totale;;;;;;;;;;;Traffico Med.Orario 06:00 - 20:00;Traffico Ora di punta;
Giorno;01 Motocicli;02 Auto e monovolume;03 Auto e monovolume con rimorchio;04 Furgoncini e camioncini;05 Camion medi;06 Camion grandi;07 Autotreni;08 Autoarticolati;09 Autobus;10 Veicoli non classificati;Totale;Totale;Ora di punta;Flusso totale ora di punta;;Giorno;01 Motocicli;02 Auto e monovolume;03 Auto e monovolume con rimorchio;04 Furgoncini e camioncini;05 Camion medi;06 Camion grandi;07 Autotreni;08 Autoarticolati;09 Autobus;10 Veicoli non classificati;Totale;Totale;Ora di punta;Flusso totale ora di punta;;Giorno;01 Motocicli;02 Auto e monovolume;03 Auto e monovolume con rimorchio;04 Furgoncini e camioncini;05 Camion medi;06 Camion grandi;07 Autotreni;08 Autoarticolati;09 Autobus;10 Veicoli non classificati;Totale;Totale;Ora di punta;Flusso totale ora di punta
01/01/2019;51;2578;1;104;8;0;0;0;3;0;2745;151;16;291;;01/01/2019;25;1180;0;38;4;0;0;0;2;0;1249;70;16;132;;01/01/2019;26;1398;1;66;4;0;0;0;1;0;1496;81;16;159
02/01/2019;42;3210;2;266;26;9;4;11;12;0;3582;237;17;338;;02/01/2019;17;1572;2;136;14;5;2;7;5;0;1760;116;11;165;;02/01/2019;25;1638;0;130;12;4;2;4;7;0;1822;121;17;183
03/01/2019;57;3117;3;248;48;15;3;10;9;0;3510;233;17;362;;03/01/2019;24;1566;1;130;28;5;1;5;5;0;1765;118;17;178;;03/01/2019;33;1551;2;118;20;10;2;5;4;0;1745;115;17;184
04/01/2019;45;3417;6;289;26;8;3;6;10;0;3810;249;17;370;;04/01/2019;21;1726;2;143;13;5;1;4;5;0;1920;124;11;196;;04/01/2019;24;1691;4;146;13;3;2;2;5;0;1890;125;10;191
05/01/2019;43;2903;3;152;5;5;1;2;11;0;3125;196;11;300;;05/01/2019;15;1448;1;81;1;3;0;1;6;0;1556;98;12;156;;05/01/2019;28;1455;2;71;4;2;1;1;5;0;1569;98;11;149
06/01/2019;49;2358;0;72;6;0;0;2;6;0;2493;153;16;241;;06/01/2019;20;1127;0;31;3;0;0;0;2;0;1183;71;12;119;;06/01/2019;29;1231;0;41;3;0;0;2;4;0;1310;82;16;156
07/01/2019;35;3041;7;309;35;21;7;17;13;0;3485;231;17;336;;07/01/2019;19;1550;2;163;17;7;4;6;7;0;1775;117;17;177;;07/01/2019;16;1491;5;146;18;14;3;11;6;0;1710;115;7;159
08/01/2019;43;3023;1;353;51;16;14;4;13;0;3518;236;17;347;;08/01/2019;23;1544;0;177;26;7;6;2;7;0;1792;120;17;169;;08/01/2019;20;1479;1;176;25;9;8;2;6;0;1726;116;17;178
09/01/2019;39;3014;1;298;43;20;10;12;13;0;3450;230;17;352;;09/01/2019;14;1533;0;152;23;6;5;8;6;0;1747;116;17;189;;09/01/2019;25;1481;1;146;20;14;5;4;7;0;1703;114;17;163
10/01/2019;27;3036;6;269;56;24;5;15;14;0;3452;230;17;319;;10/01/2019;13;1560;3;137;29;14;2;3;7;0;1768;117;17;172;;10/01/2019;14;1476;3;132;27;10;3;12;7;0;1684;113;8;161
11/01/2019;30;3450;2;353;40;27;6;24;12;0;3944;261;10;334;;11/01/2019;13;1742;2;190;23;11;3;12;7;0;2003;131;11;189;;11/01/2019;17;1708;0;163;17;16;3;12;5;0;1941;130;9;196
12/01/2019;35;2916;4;184;9;7;1;2;12;0;3170;200;12;293;;12/01/2019;19;1478;2;92;4;2;0;2;7;0;1606;102;12;171;;12/01/2019;16;1438;2;92;5;5;1;0;5;0;1564;98;16;146
13/01/2019;54;2306;2;94;2;2;0;2;6;0;2468;152;17;234;;13/01/2019;17;1152;1;41;0;1;0;0;3;0;1215;73;12;137;;13/01/2019;37;1154;1;53;2;1;0;2;3;0;1253;80;16;134
14/01/2019;47;3100;0;290;42;14;16;14;14;0;3537;235;17;368;;14/01/2019;23;1552;0;155;20;4;9;7;9;0;1779;118;17;170;;14/01/2019;24;1548;0;135;22;10;7;7;5;0;1758;117;17;198
15/01/2019;35;3013;5;362;49;14;15;14;10;0;3517;234;17;358;;15/01/2019;16;1515;3;190;29;6;4;6;5;0;1774;118;17;190;;15/01/2019;19;1498;2;172;20;8;11;8;5;0;1743;116;17;168
16/01/2019;45;3230;4;313;54;17;7;17;13;0;3700;245;17;369;;16/01/2019;25;1618;2;168;27;7;4;9;7;0;1867;123;17;186;;16/01/2019;20;1612;2;145;27;10;3;8;6;0;1833;122;17;183
17/01/2019;40;3208;1;268;44;11;8;12;13;0;3605;237;17;318;;17/01/2019;20;1631;0;142;18;5;2;5;7;0;1830;118;10;155;;17/01/2019;20;1577;1;126;26;6;6;7;6;0;1775;119;17;169
18/01/2019;35;3559;2;317;51;14;4;19;15;0;4016;260;17;378;;18/01/2019;21;1809;1;176;27;5;1;9;9;0;2058;132;11;193;;18/01/2019;14;1750;1;141;24;9;3;10;6;0;1958;128;17;187
19/01/2019;41;3008;5;140;12;2;4;3;15;0;3230;200;11;300;;19/01/2019;18;1514;3;69;7;1;3;1;8;0;1624;99;11;155;;19/01/2019;23;1494;2;71;5;1;1;2;7;0;1606;100;10;146
20/01/2019;33;2303;2;70;9;1;1;2;6;0;2427;148;12;227;;20/01/2019;15;1132;1;41;6;1;1;0;3;0;1200;72;12;132;;20/01/2019;18;1171;1;29;3;0;0;2;3;0;1227;76;17;120
21/01/2019;40;2964;1;315;40;12;8;14;13;0;3407;227;17;308;;21/01/2019;16;1494;0;163;23;5;3;6;7;0;1717;114;17;158;;21/01/2019;24;1470;1;152;17;7;5;8;6;0;1690;113;16;165
22/01/2019;29;2875;2;269;35;17;10;29;10;0;3276;219;17;314;;22/01/2019;11;1475;2;145;21;9;4;9;5;0;1681;112;17;171;;22/01/2019;18;1400;0;124;14;8;6;20;5;0;1595;108;7;157
23/01/2019;;;;;;;;;;;;;;;;23/01/2019;;;;;;;;;;;;;;;;23/01/2019;;;;;;;;;;;;;;
24/01/2019;;;;;;;;;;;;;;;;24/01/2019;;;;;;;;;;;;;;;;24/01/2019;;;;;;;;;;;;;;
25/01/2019;29;3395;5;304;39;10;6;7;16;0;3811;250;17;377;;25/01/2019;10;1746;3;165;22;5;3;5;9;0;1968;127;17;185;;25/01/2019;19;1649;2;139;17;5;3;2;7;0;1843;122;17;192
26/01/2019;46;2864;8;183;7;0;0;2;14;0;3124;194;11;283;;26/01/2019;25;1472;5;96;5;0;0;1;7;0;1611;98;11;152;;26/01/2019;21;1392;3;87;2;0;0;1;7;0;1513;96;10;138
27/01/2019;48;2304;1;83;3;0;0;1;5;0;2445;151;12;221;;27/01/2019;35;1144;1;37;1;0;0;0;3;0;1221;74;12;136;;27/01/2019;13;1160;0;46;2;0;0;1;2;0;1224;77;10;118
28/01/2019;40;3092;3;288;45;11;8;14;13;0;3514;234;17;349;;28/01/2019;20;1526;1;154;25;6;4;8;7;0;1751;117;17;173;;28/01/2019;20;1566;2;134;20;5;4;6;6;0;1763;117;17;176
29/01/2019;29;3162;4;332;62;20;11;12;13;0;3645;243;17;383;;29/01/2019;13;1643;1;178;35;11;6;5;7;0;1899;126;17;204;;29/01/2019;16;1519;3;154;27;9;5;7;6;0;1746;117;17;179
30/01/2019;30;2975;5;276;38;22;7;15;17;0;3385;224;7;286;;30/01/2019;8;1501;3;143;18;9;2;6;10;0;1700;112;9;141;;30/01/2019;22;1474;2;133;20;13;5;9;7;0;1685;112;7;165
31/01/2019;34;2949;2;278;44;18;10;19;14;0;3368;222;17;290;;31/01/2019;19;1517;1;144;28;6;5;8;8;0;1736;114;17;169;;31/01/2019;15;1432;1;134;16;12;5;11;6;0;1632;108;7;146
01/02/2019;46;3356;1;288;37;18;2;27;11;0;3786;246;11;331;;01/02/2019;25;1753;1;158;18;9;1;11;5;0;1981;128;11;200;;01/02/2019;21;1603;0;130;19;9;1;16;6;0;1805;118;9;169
02/02/2019;;;;;;;;;;;;;;;;02/02/2019;;;;;;;;;;;;;;;;02/02/2019;;;;;;;;;;;;;;
03/02/2019;;;;;;;;;;;;;;;;03/02/2019;;;;;;;;;;;;;;;;03/02/2019;;;;;;;;;;;;;;
04/02/2019;46;3179;11;321;49;18;2;11;14;0;3651;240;17;365;;04/02/2019;20;1605;5;174;29;6;1;5;7;0;1852;120;17;187;;04/02/2019;26;1574;6;147;20;12;1;6;7;0;1799;120;17;178
05/02/2019;38;3271;4;307;64;12;10;14;13;0;3733;249;17;386;;05/02/2019;19;1690;2;170;33;6;7;9;6;0;1942;129;17;207;;05/02/2019;19;1581;2;137;31;6;3;5;7;0;1791;120;17;179
06/02/2019;40;3240;5;374;53;33;13;22;14;0;3794;254;17;384;;06/02/2019;18;1640;3;203;28;14;8;11;8;0;1933;128;17;213;;06/02/2019;22;1600;2;171;25;19;5;11;6;0;1861;126;17;171
07/02/2019;32;3279;4;329;67;24;7;29;13;0;3784;251;17;386;;07/02/2019;18;1681;3;184;32;14;2;12;7;0;1953;130;17;208;;07/02/2019;14;1598;1;145;35;10;5;17;6;0;1831;121;17;178
08/02/2019;44;3804;5;364;65;11;5;14;12;0;4324;282;17;444;;08/02/2019;25;1938;2;195;35;6;2;5;7;0;2215;143;17;225;;08/02/2019;19;1866;3;169;30;5;3;9;5;0;2109;139;17;219
09/02/2019;64;3099;8;195;10;0;1;5;14;0;3396;214;11;305;;09/02/2019;33;1581;4;107;4;0;0;3;8;0;1740;108;11;150;;09/02/2019;31;1518;4;88;6;0;1;2;6;0;1656;106;11;155
10/02/2019;58;2422;6;83;7;1;0;2;5;0;2584;159;17;242;;10/02/2019;37;1214;2;48;5;1;0;0;3;0;1310;79;12;131;;10/02/2019;21;1208;4;35;2;0;0;2;2;0;1274;80;17;140
11/02/2019;36;3110;11;302;44;13;9;14;12;0;3551;235;17;352;;11/02/2019;16;1571;3;165;25;6;5;4;7;0;1802;119;17;179;;11/02/2019;20;1539;8;137;19;7;4;10;5;0;1749;116;17;173
12/02/2019;40;3241;1;348;47;27;3;16;15;0;3738;248;17;363;;12/02/2019;21;1655;0;182;19;14;1;6;8;0;1906;126;17;174;;12/02/2019;19;1586;1;166;28;13;2;10;7;0;1832;122;17;189
13/02/2019;44;3304;3;322;43;24;12;14;13;0;3779;250;17;411;;13/02/2019;18;1652;2;166;22;17;4;8;7;0;1896;124;17;235;;13/02/2019;26;1652;1;156;21;7;8;6;6;0;1883;125;17;176
14/02/2019;36;3362;1;324;67;22;7;25;13;0;3857;253;17;387;;14/02/2019;15;1698;0;182;35;12;3;10;7;0;1962;128;17;202;;14/02/2019;21;1664;1;142;32;10;4;15;6;0;1895;125;17;185
15/02/2019;50;3657;5;315;63;25;8;13;13;0;4149;269;17;397;;15/02/2019;22;1885;2;166;35;12;3;9;6;0;2140;138;17;208;;15/02/2019;28;1772;3;149;28;13;5;4;7;0;2009;131;9;190
16/02/2019;102;3374;1;229;10;4;2;3;14;0;3739;233;17;324;;16/02/2019;43;1709;0;130;6;3;1;2;7;0;1901;116;17;170;;16/02/2019;59;1665;1;99;4;1;1;1;7;0;1838;116;16;164
17/02/2019;100;2700;4;108;6;3;2;2;9;0;2934;183;17;279;;17/02/2019;40;1331;3;60;2;2;0;0;6;0;1444;88;17;145;;17/02/2019;60;1369;1;48;4;1;2;2;3;0;1490;95;12;162
18/02/2019;24;3329;4;338;45;22;10;39;14;0;3825;255;16;366;;18/02/2019;12;1587;1;177;24;8;2;11;8;0;1830;122;17;174;;18/02/2019;12;1742;3;161;21;14;8;28;6;0;1995;133;16;248
19/02/2019;24;3262;5;318;55;12;7;18;16;0;3717;248;17;366;;19/02/2019;11;1649;2;182;33;6;2;9;10;0;1904;127;17;176;;19/02/2019;13;1613;3;136;22;6;5;9;6;0;1813;121;17;190
20/02/2019;34;3190;4;332;68;27;5;28;14;0;3702;248;17;370;;20/02/2019;21;1603;2;179;34;12;1;14;8;0;1874;125;17;190;;20/02/2019;13;1587;2;153;34;15;4;14;6;0;1828;123;17;180
21/02/2019;41;3263;6;298;54;11;14;13;15;0;3715;244;17;362;;21/02/2019;15;1664;4;159;35;8;8;6;9;0;1908;126;16;184;;21/02/2019;26;1599;2;139;19;3;6;7;6;0;1807;118;17;196
22/02/2019;37;3557;7;365;77;9;10;10;13;0;4085;266;17;382;;22/02/2019;17;1796;5;196;41;4;4;7;7;0;2077;134;17;197;;22/02/2019;20;1761;2;169;36;5;6;3;6;0;2008;131;17;185
23/02/2019;51;3138;9;222;11;1;2;3;13;0;3450;215;10;291;;23/02/2019;14;1564;6;114;5;0;1;2;7;0;1713;105;12;157;;23/02/2019;37;1574;3;108;6;1;1;1;6;0;1737;110;10;158
24/02/2019;57;2599;3;89;7;2;0;1;5;0;2763;170;11;291;;24/02/2019;29;1299;1;46;5;2;0;0;3;0;1385;84;11;164;;24/02/2019;28;1300;2;43;2;0;0;1;2;0;1378;86;16;157
25/02/2019;27;3075;5;337;38;19;13;15;12;0;3541;236;17;341;;25/02/2019;12;1544;2;181;22;7;4;6;7;0;1785;118;17;160;;25/02/2019;15;1531;3;156;16;12;9;9;5;0;1756;119;17;181
26/02/2019;27;3108;3;370;44;25;8;22;13;0;3620;242;17;352;;26/02/2019;13;1588;2;189;28;12;4;14;7;0;1857;123;17;176;;26/02/2019;14;1520;1;181;16;13;4;8;6;0;1763;118;17;176
27/02/2019;37;3301;0;310;56;16;4;13;13;0;3750;249;17;379;;27/02/2019;17;1656;0;158;30;9;3;5;7;0;1885;125;17;193;;27/02/2019;20;1645;0;152;26;7;1;8;6;0;1865;125;17;186
28/02/2019;51;3245;7;306;61;14;14;27;15;0;3740;245;17;404;;28/02/2019;27;1650;3;166;39;6;6;13;10;0;1920;126;17;198;;28/02/2019;24;1595;4;140;22;8;8;14;5;0;1820;119;17;206
01/03/2019;40;3635;4;330;72;17;6;29;16;0;4149;270;17;373;;01/03/2019;18;1848;2;173;40;7;4;15;10;0;2117;137;17;193;;01/03/2019;22;1787;2;157;32;10;2;14;6;0;2032;133;8;191
02/03/2019;100;3243;3;218;9;5;5;0;12;0;3595;227;16;307;;02/03/2019;40;1611;3;119;5;4;3;0;6;0;1791;112;17;144;;02/03/2019;60;1632;0;99;4;1;2;0;6;0;1804;114;16;166
03/03/2019;118;2942;4;100;4;5;2;2;7;0;3184;198;17;312;;03/03/2019;56;1438;1;47;3;3;1;0;5;0;1554;96;12;172;;03/03/2019;62;1504;3;53;1;2;1;2;2;0;1630;103;17;172
04/03/2019;52;3227;5;316;46;13;11;22;14;0;3706;245;17;372;;04/03/2019;36;1646;2;165;28;5;5;10;8;0;1905;126;17;178;;04/03/2019;16;1581;3;151;18;8;6;12;6;0;1801;120;17;194
05/03/2019;40;3356;3;349;56;14;13;18;16;0;3865;256;17;343;;05/03/2019;21;1698;2;193;27;7;8;10;9;0;1975;131;17;185;;05/03/2019;19;1658;1;156;29;7;5;8;7;0;1890;126;8;168
06/03/2019;50;3241;4;337;79;25;7;19;17;0;3779;252;17;360;;06/03/2019;29;1639;1;180;41;13;3;9;9;0;1924;127;17;177;;06/03/2019;21;1602;3;157;38;12;4;10;8;0;1855;124;17;183
07/03/2019;43;3405;6;349;67;31;9;26;14;0;3950;259;17;377;;07/03/2019;26;1702;5;194;31;17;2;11;7;0;1995;131;16;192;;07/03/2019;17;1703;1;155;36;14;7;15;7;0;1955;128;17;189
08/03/2019;33;3755;5;349;55;26;5;26;15;0;4269;277;17;389;;08/03/2019;20;1941;3;197;29;14;1;13;8;0;2226;143;17;201;;08/03/2019;13;1814;2;152;26;12;4;13;7;0;2043;134;17;188
09/03/2019;80;3386;2;166;13;3;2;0;14;0;3666;232;12;330;;09/03/2019;36;1687;1;94;7;1;2;0;7;0;1835;115;12;175;;09/03/2019;44;1699;1;72;6;2;0;0;7;0;1831;118;17;165
10/03/2019;75;2858;8;121;9;1;0;1;11;0;3084;188;17;298;;10/03/2019;35;1400;3;58;5;1;0;0;6;0;1508;88;12;151;;10/03/2019;40;1458;5;63;4;0;0;1;5;0;1576;100;17;179
11/03/2019;45;3245;9;312;64;25;8;21;13;0;3742;249;17;376;;11/03/2019;21;1637;5;159;36;13;4;10;7;0;1892;125;17;179;;11/03/2019;24;1608;4;153;28;12;4;11;6;0;1850;124;17;197
12/03/2019;33;3327;2;325;68;26;10;32;15;0;3838;256;17;356;;12/03/2019;21;1679;2;179;36;15;6;14;9;0;1961;130;17;181;;12/03/2019;12;1648;0;146;32;11;4;18;6;0;1877;126;7;177
13/03/2019;35;3283;1;324;50;21;13;12;13;0;3752;250;17;349;;13/03/2019;21;1649;1;172;25;10;7;8;7;0;1900;125;17;185;;13/03/2019;14;1634;0;152;25;11;6;4;6;0;1852;124;7;201
14/03/2019;32;3404;6;342;49;16;5;21;16;0;3891;255;17;373;;14/03/2019;13;1738;3;188;24;6;1;8;10;0;1991;130;17;192;;14/03/2019;19;1666;3;154;25;10;4;13;6;0;1900;125;17;181
15/03/2019;53;3809;4;376;52;32;9;14;13;0;4362;283;17;400;;15/03/2019;31;1947;3;210;25;17;6;3;8;0;2250;144;17;212;;15/03/2019;22;1862;1;166;27;15;3;11;5;0;2112;139;17;188
16/03/2019;48;3465;5;243;19;7;6;0;13;0;3806;238;11;326;;16/03/2019;24;1727;2;120;7;3;3;0;7;0;1893;119;11;183;;16/03/2019;24;1738;3;123;12;4;3;0;6;0;1913;119;17;176
17/03/2019;92;2847;2;85;4;0;0;1;6;0;3037;189;17;284;;17/03/2019;37;1396;1;42;1;0;0;0;4;0;1481;90;12;149;;17/03/2019;55;1451;1;43;3;0;0;1;2;0;1556;99;17;151
18/03/2019;42;3507;8;339;50;34;4;20;14;0;4018;268;17;368;;18/03/2019;18;1763;6;180;25;16;1;9;8;0;2026;135;17;183;;18/03/2019;24;1744;2;159;25;18;3;11;6;0;1992;133;7;189
19/03/2019;41;3251;6;317;63;38;7;22;12;0;3757;249;17;348;;19/03/2019;19;1647;3;155;36;19;3;10;7;0;1899;126;17;175;;19/03/2019;22;1604;3;162;27;19;4;12;5;0;1858;123;7;181
20/03/2019;46;3425;3;357;59;26;5;13;13;0;3947;261;17;361;;20/03/2019;20;1709;1;192;35;11;3;6;7;0;1984;131;17;194;;20/03/2019;26;1716;2;165;24;15;2;7;6;0;1963;130;7;192
21/03/2019;51;3442;6;426;65;18;10;22;17;0;4057;264;17;343;;21/03/2019;19;1740;3;231;30;8;2;8;10;0;2051;132;18;183;;21/03/2019;32;1702;3;195;35;10;8;14;7;0;2006;132;8;182
22/03/2019;53;3896;10;390;42;24;6;20;19;0;4460;288;17;396;;22/03/2019;24;2004;4;212;25;13;4;10;9;0;2305;148;17;218;;22/03/2019;29;1892;6;178;17;11;2;10;10;0;2155;140;16;190
23/03/2019;128;3732;7;240;10;1;3;1;16;0;4138;254;11;335;;23/03/2019;44;1879;3;136;7;0;2;0;7;0;2078;127;12;179;;23/03/2019;84;1853;4;104;3;1;1;1;9;0;2060;127;18;176
24/03/2019;120;3469;5;125;6;3;0;1;5;0;3734;236;12;344;;24/03/2019;52;1670;3;65;3;2;0;0;3;0;1798;113;12;186;;24/03/2019;68;1799;2;60;3;1;0;1;2;0;1936;123;10;182
25/03/2019;69;3451;4;365;60;25;4;25;15;0;4018;267;17;405;;25/03/2019;44;1734;3;202;29;12;0;12;8;0;2044;134;17;185;;25/03/2019;25;1717;1;163;31;13;4;13;7;0;1974;132;17;220
26/03/2019;29;3194;6;369;65;22;12;14;13;0;3724;246;17;348;;26/03/2019;12;1584;4;196;38;12;6;7;8;0;1867;122;11;175;;26/03/2019;17;1610;2;173;27;10;6;7;5;0;1857;123;17;174
27/03/2019;56;3481;2;363;62;23;9;17;16;0;4029;267;17;387;;27/03/2019;23;1763;1;189;35;12;5;6;8;0;2042;136;17;204;;27/03/2019;33;1718;1;174;27;11;4;11;8;0;1987;131;7;184
28/03/2019;47;3578;3;382;68;19;4;20;15;0;4136;268;17;375;;28/03/2019;25;1839;2;198;35;9;3;9;8;0;2128;139;17;206;;28/03/2019;22;1739;1;184;33;10;1;11;7;0;2008;129;7;208
29/03/2019;48;4052;6;410;73;29;12;18;14;0;4662;296;17;391;;29/03/2019;23;2072;4;228;41;18;6;8;7;0;2407;152;17;216;;29/03/2019;25;1980;2;182;32;11;6;10;7;0;2255;144;8;197
30/03/2019;87;3721;7;237;12;6;1;0;14;0;4085;250;11;338;;30/03/2019;31;1867;4;131;7;3;1;0;8;0;2052;126;11;174;;30/03/2019;56;1854;3;106;5;3;0;0;6;0;2033;124;11;164
31/03/2019;133;3215;3;99;5;2;1;1;8;0;3467;213;12;323;;31/03/2019;53;1547;2;48;2;1;0;0;3;0;1656;101;12;192;;31/03/2019;80;1668;1;51;3;1;1;1;5;0;1811;111;17;171
01/04/2019;62;3429;6;359;60;29;7;11;13;0;3976;263;17;343;;01/04/2019;34;1720;4;184;31;17;3;5;7;0;2005;132;17;186;;01/04/2019;28;1709;2;175;29;12;4;6;6;0;1971;131;7;191
02/04/2019;39;3401;10;382;79;41;12;15;14;0;3993;261;8;345;;02/04/2019;23;1746;5;215;42;21;7;8;9;0;2076;135;17;187;;02/04/2019;16;1655;5;167;37;20;5;7;5;0;1917;126;8;198
03/04/2019;38;3470;4;320;64;24;7;21;14;0;3962;263;17;395;;03/04/2019;26;1784;2;163;38;13;1;8;8;0;2043;135;17;227;;03/04/2019;12;1686;2;157;26;11;6;13;6;0;1919;128;7;182
04/04/2019;38;3103;2;354;66;31;8;17;15;0;3634;242;8;321;;04/04/2019;24;1556;2;190;31;17;4;8;8;0;1840;121;17;156;;04/04/2019;14;1547;0;164;35;14;4;9;7;0;1794;120;8;186
05/04/2019;51;3920;7;416;53;29;12;16;16;0;4520;293;17;386;;05/04/2019;28;2002;3;231;27;13;8;8;9;0;2329;149;17;208;;05/04/2019;23;1918;4;185;26;16;4;8;7;0;2191;144;8;200
06/04/2019;99;3500;5;202;17;10;1;4;15;0;3853;235;10;320;;06/04/2019;49;1766;3;105;6;7;0;2;8;0;1946;118;12;166;;06/04/2019;50;1734;2;97;11;3;1;2;7;0;1907;117;10;168
07/04/2019;62;2910;2;115;1;0;1;1;5;0;3097;186;12;283;;07/04/2019;29;1433;1;57;1;0;1;0;3;0;1525;87;19;151;;07/04/2019;33;1477;1;58;0;0;0;1;2;0;1572;99;12;168
08/04/2019;48;3455;3;330;81;35;8;22;14;0;3996;265;17;373;;08/04/2019;25;1725;2;164;45;18;6;10;8;0;2003;133;17;187;;08/04/2019;23;1730;1;166;36;17;2;12;6;0;1993;133;7;199
09/04/2019;60;3545;6;353;82;37;14;24;19;0;4140;273;17;360;;09/04/2019;30;1822;3;186;51;18;7;13;10;0;2140;140;18;195;;09/04/2019;30;1723;3;167;31;19;7;11;9;0;2000;133;7;188
10/04/2019;31;3520;6;335;42;27;14;23;18;0;4016;267;17;353;;10/04/2019;15;1786;4;186;25;13;5;8;11;0;2053;136;17;189;;10/04/2019;16;1734;2;149;17;14;9;15;7;0;1963;131;7;188
11/04/2019;36;3490;4;336;61;25;7;24;17;0;4000;262;17;399;;11/04/2019;17;1755;4;185;34;11;3;12;9;0;2030;133;17;211;;11/04/2019;19;1735;0;151;27;14;4;12;8;0;1970;129;17;188
12/04/2019;52;4071;7;415;42;23;11;15;16;0;4652;299;17;386;;12/04/2019;28;2083;6;228;21;9;6;10;8;0;2399;152;11;206;;12/04/2019;24;1988;1;187;21;14;5;5;8;0;2253;147;8;219
13/04/2019;70;3619;6;242;11;7;1;3;16;0;3975;240;10;369;;13/04/2019;30;1759;2;111;4;2;1;0;6;0;1915;113;11;157;;13/04/2019;40;1860;4;131;7;5;0;3;10;0;2060;126;10;215
14/04/2019;68;2791;6;90;8;5;0;2;11;0;2981;179;17;260;;14/04/2019;37;1392;1;36;5;4;0;0;4;0;1479;87;12;142;;14/04/2019;31;1399;5;54;3;1;0;2;7;0;1502;91;17;147
15/04/2019;53;3669;5;375;61;25;7;27;15;0;4237;281;17;388;;15/04/2019;29;1862;2;215;34;13;2;10;9;0;2176;143;17;195;;15/04/2019;24;1807;3;160;27;12;5;17;6;0;2061;137;7;216
16/04/2019;52;3680;4;421;77;26;9;15;21;0;4305;282;17;395;;16/04/2019;22;1871;2;231;37;11;4;5;12;0;2195;143;17;205;;16/04/2019;30;1809;2;190;40;15;5;10;9;0;2110;139;8;207
17/04/2019;55;3977;15;476;61;28;6;21;27;0;4666;305;17;440;;17/04/2019;24;2033;7;260;34;11;2;11;14;0;2396;154;17;242;;17/04/2019;31;1944;8;216;27;17;4;10;13;0;2270;150;7;203
18/04/2019;61;3824;4;433;54;17;9;19;11;0;4432;284;17;379;;18/04/2019;27;1929;2;246;29;7;4;11;6;0;2261;143;18;201;;18/04/2019;34;1895;2;187;25;10;5;8;5;0;2171;141;17;187
19/04/2019;58;4598;10;474;42;20;4;11;11;0;5228;331;17;513;;19/04/2019;30;2372;5;262;18;12;2;7;5;0;2713;168;17;284;;19/04/2019;28;2226;5;212;24;8;2;4;6;0;2515;163;17;229
20/04/2019;140;4938;10;265;16;3;1;3;12;0;5388;328;11;473;;20/04/2019;75;2536;5;139;9;1;0;1;6;0;2772;168;11;236;;20/04/2019;65;2402;5;126;7;2;1;2;6;0;2616;160;11;237
21/04/2019;113;4395;3;124;10;3;0;0;2;0;4650;272;12;500;;21/04/2019;49;2201;0;59;6;0;0;0;1;0;2316;134;12;290;;21/04/2019;64;2194;3;65;4;3;0;0;1;0;2334;138;17;249
22/04/2019;89;4575;1;243;10;0;0;2;8;0;4928;314;11;592;;22/04/2019;33;2246;0;120;6;0;0;1;5;0;2411;153;11;318;;22/04/2019;56;2329;1;123;4;0;0;1;3;0;2517;161;10;278
23/04/2019;37;4218;3;355;33;21;5;19;13;0;4704;310;17;447;;23/04/2019;19;2145;0;186;15;10;2;11;5;0;2393;157;11;236;;23/04/2019;18;2073;3;169;18;11;3;8;8;0;2311;153;17;221
24/04/2019;65;4724;2;459;46;35;5;9;15;0;5360;342;17;562;;24/04/2019;30;2379;1;222;19;18;1;5;7;0;2682;170;17;267;;24/04/2019;35;2345;1;237;27;17;4;4;8;0;2678;172;17;295
25/04/2019;244;4603;6;211;15;4;2;1;12;0;5098;313;10;464;;25/04/2019;104;2326;0;93;6;4;1;0;6;0;2540;152;10;229;;25/04/2019;140;2277;6;118;9;0;1;1;6;0;2558;160;11;249
26/04/2019;92;5530;4;520;49;22;9;21;16;0;6263;396;10;569;;26/04/2019;48;2792;2;277;18;11;5;12;8;0;3173;199;11;298;;26/04/2019;44;2738;2;243;31;11;4;9;8;0;3090;197;17;282
27/04/2019;257;4958;6;329;26;2;3;0;22;0;5603;346;10;499;;27/04/2019;101;2488;3;172;11;1;1;0;11;0;2788;171;17;238;;27/04/2019;156;2470;3;157;15;1;2;0;11;0;2815;175;10;273
28/04/2019;124;3713;0;145;12;2;0;4;9;0;4009;245;11;388;;28/04/2019;52;1826;0;65;5;1;0;0;6;0;1955;115;11;187;;28/04/2019;72;1887;0;80;7;1;0;4;3;0;2054;130;10;226
29/04/2019;47;3872;5;446;59;27;8;25;15;0;4504;294;17;395;;29/04/2019;17;1968;4;233;28;11;3;14;10;0;2288;149;17;190;;29/04/2019;30;1904;1;213;31;16;5;11;5;0;2216;145;17;205
30/04/2019;86;4300;8;435;64;31;17;20;18;0;4979;316;17;421;;30/04/2019;32;2172;4;234;35;19;8;13;9;0;2526;159;18;211;;30/04/2019;54;2128;4;201;29;12;9;7;9;0;2453;158;17;216
01/05/2019;90;3724;5;147;8;2;1;0;5;0;3982;243;17;396;;01/05/2019;35;1829;2;69;4;1;0;0;3;0;1943;115;17;183;;01/05/2019;55;1895;3;78;4;1;1;0;2;0;2039;128;17;213
02/05/2019;80;4263;4;437;79;29;7;16;24;0;4939;320;17;441;;02/05/2019;38;2178;1;243;41;20;3;7;12;0;2543;162;17;240;;02/05/2019;42;2085;3;194;38;9;4;9;12;0;2396;158;17;201
03/05/2019;51;4464;9;449;60;21;6;16;16;0;5092;327;17;417;;03/05/2019;28;2277;5;233;29;11;3;9;9;0;2604;164;17;210;;03/05/2019;23;2187;4;216;31;10;3;7;7;0;2488;163;10;218
04/05/2019;76;3947;10;259;20;1;0;1;22;0;4336;261;11;351;;04/05/2019;42;2018;4;129;10;1;0;0;12;0;2216;130;12;185;;04/05/2019;34;1929;6;130;10;0;0;1;10;0;2120;131;17;175
05/05/2019;49;3066;3;107;7;1;0;1;8;0;3242;201;12;299;;05/05/2019;25;1536;2;51;3;1;0;0;3;0;1621;98;18;165;;05/05/2019;24;1530;1;56;4;0;0;1;5;0;1621;103;10;163
06/05/2019;44;3719;7;349;79;25;3;17;15;0;4258;278;17;410;;06/05/2019;22;1907;4;193;48;12;1;7;8;0;2202;142;17;203;;06/05/2019;22;1812;3;156;31;13;2;10;7;0;2056;136;17;207
07/05/2019;72;3640;4;431;64;24;13;12;16;0;4276;279;17;400;;07/05/2019;38;1856;2;230;39;8;7;5;9;0;2194;141;17;210;;07/05/2019;34;1784;2;201;25;16;6;7;7;0;2082;138;17;190
08/05/2019;57;3563;6;483;79;27;5;25;23;0;4268;280;17;401;;08/05/2019;39;1834;3;253;45;13;3;11;11;0;2212;143;17;220;;08/05/2019;18;1729;3;230;34;14;2;14;12;0;2056;137;17;181
09/05/2019;38;3699;8;434;68;20;7;17;16;0;4307;278;17;396;;09/05/2019;20;1899;4;230;33;11;4;6;8;0;2215;140;17;205;;09/05/2019;18;1800;4;204;35;9;3;11;8;0;2092;137;7;191